This demonstration page uses our WeatherBlox Daily Observations layout. Learn more.

Left ArrowRight Arrow

Hourly Observations for May 20, 2022

Temp ( °F °C ) Dew Point ( °F °C ) Humidity (%) Winds ( mph kmh ) Pressure ( in mb ) Visibility ( mi km ) Precip ( " mm )
12:56 am 00:56 Cloudy 61 15.9 44 6.9 55 55 NNW 18 30 29.43 997 10 16 0.00 0.00
1:56 am 01:56 Cloudy 60 15.7 43 6.1 53 53 N 18 30 29.43 997 10 16 0.00 0.00
2:56 am 02:56 Cloudy 59 15.1 43 5.9 54 54 N 12 19 29.45 997 10 16 0.00 0.00
3:56 am 03:56 Mostly Cloudy 57 14.1 42 5.5 56 56 N 12 19 29.44 997 10 16 0.00 0.00
4:56 am 04:56 Cloudy with Drizzle 58 14.2 42 5.8 57 57 N 10 17 29.47 998 10 16 0.00 0.00
5:56 am 05:56 Cloudy 57 13.9 43 6 59 59 N 8 13 29.47 998 10 16 0.00 0.00
6:56 am 06:56 Mostly Cloudy 57 13.9 42 5.8 58 58 N 10 17 29.51 999 10 16 0.00 0.00
7:56 am 07:56 Mostly Cloudy 57 13.8 42 5.4 57 57 N 10 17 29.54 1000 10 16 0.00 0.00
8:56 am 08:56 Cloudy 57 13.9 41 5 55 55 N 9 15 29.55 1001 10 16 0.00 0.00
9:56 am 09:56 Cloudy 58 14.3 40 4.6 52 52 NW 12 19 29.59 1002 10 16 0.00 0.00
10:56 am 10:56 Cloudy 60 15.3 41 4.9 50 50 NW 9 15 29.60 1003 10 16 0.00 0.00
11:56 am 11:56 Mostly Cloudy 62 16.7 39 3.7 42 42 NNW 10 17 29.64 1004 10 16 0.00 0.00
12:56 pm 12:56 Mostly Cloudy 65 18.4 39 3.8 38 38 NNW 12 19 29.64 1004 10 16 0.00 0.00
1:56 pm 13:56 Mostly Cloudy 68 19.9 37 2.7 32 32 NW 14 22 29.66 1004 10 16 0.00 0.00
2:56 pm 14:56 Mostly Cloudy 69 20.8 37 3 31 31 NNW 9 15 29.67 1005 10 16 0.00 0.00
3:26 pm 15:26 undefined 70 21 37 3 31 31 N 13 20 29.67 1005 7 11 0.00 0.00
3:56 pm 15:56 Mostly Cloudy 71 21.4 37 2.6 29 29 WNW 14 22 29.68 1005 9 14 0.00 0.00
4:56 pm 16:56 Partly Cloudy 71 21.7 34 1.3 26 26 NW 16 26 29.70 1006 9 14 0.00 0.00
5:56 pm 17:56 Mostly Sunny 70 20.9 33 0.7 26 26 NW 18 30 29.74 1007 10 16 0.00 0.00
6:56 pm 18:56 Mostly Sunny 65 18.4 33 0.5 30 30 N 14 22 29.78 1009 10 16 0.00 0.00
7:56 pm 19:56 Sunny 63 17.2 36 2 36 36 NNW 10 17 29.82 1010 10 16 0.00 0.00
8:56 pm 20:56 Mostly Cloudy 62 16.6 34 1.1 35 35 NNW 9 15 29.86 1011 10 16 0.00 0.00
9:56 pm 21:56 Mostly Cloudy 60 15.7 35 1.8 39 39 NW 15 24 29.91 1013 10 16 0.00 0.00
10:56 pm 22:56 Clear 58 14.5 33 0.3 38 38 NW 10 17 29.95 1014 10 16 0.00 0.00
11:56 pm 23:56 Clear 56 13.1 37 2.9 50 50 NNW 17 28 29.96 1015 10 16 0.00 0.00

Powered by AerisWeather